Litchfield, IL

12:32 PM CDT on August 26, 2016 (GMT -0500)
Litchfield

Weather History for K3LF - May, 2013

Change the Weather History Date:

Thursday, May 16, 2013

  Actual Average (KSPI) Record (KSPI)
Temperature  
Mean Temperature 69 °F 64 °F  
Max Temperature 77 °F 75 °F 93 °F (2001)
Min Temperature 60 °F 53 °F 33 °F (1997)
Degree Days  
Heating Degree Days 0 4  
Month to date heating degree days 86  
Since 1 July heating degree days 5431  
Cooling Degree Days 4 3  
Month to date cooling degree days 28  
Year to date cooling degree days 48  
Growing Degree Days 19 (Base 50)    
Moisture  
Dew Point 62 °F    
Average Humidity 76    
Maximum Humidity 95    
Minimum Humidity 51    
Precipitation  
Precipitation 0.00 in 0.13 in 1.62 in (1995)
Month to date precipitation 2.14  
Year to date precipitation 11.91  
Snow  
Snow 0.00 in 0.00 in 0.00 in ()
Month to date snowfall 0.0  
Since 1 July snowfall 20.9  
Snow Depth -    
Sea Level Pressure  
Sea Level Pressure 29.92 in    
Wind  
Wind Speed 7 mph (SSW)    
Max Wind Speed 17 mph    
Max Gust Speed 21 mph    
Visibility 10 miles    
Events Thunderstorm    
T = Trace of Precipitation, MM = Missing Value Source: NWS Daily Summary

Daily Weather History Graph

Daily Weather History Graph

Search for Another Location

Airport or City:

Trip Planner

Search our weather history database for the weather conditions in past years. The results will help you decide how hot, cold, wet, or windy it might be!

Date:

Astronomy

May. 16, 2013 Rise Set
Actual Time 5:44 AM CDT 8:06 PM CDT
Civil Twilight 5:14 AM CDT 8:36 PM CDT
Nautical Twilight 4:36 AM CDT 9:14 PM CDT
Astronomical Twilight 3:55 AM CDT 9:55 PM CDT
Moon 11:16 AM CDT (5/16) 12:27 AM CDT (5/16)
Length of Visible Light 15h 22m
Length of Day
14h 21m
Waxing Crescent, 36% of the Moon is Illuminated
May 16
Waxing Crescent
May 17
First Quarter
May 24
Full
May 31
Last Quarter
Jun 8
New

Hourly Weather History & Observations

Time (CDT) Temp. Dew Point Humidity Pressure Visibility Wind Dir Wind Speed Gust Speed Precip Events Conditions
12:15 AM 69.1 °F 64.4 °F 85% 29.89 in 10.0 mi SW 4.6 mph - N/A   Clear
12:35 AM 68.4 °F 64.4 °F 87% 29.90 in 10.0 mi WNW 10.4 mph - N/A   Clear
12:55 AM 70.9 °F 64.2 °F 79% 29.89 in 10.0 mi West 5.8 mph - N/A   Clear
1:15 AM 69.3 °F 64.4 °F 84% 29.88 in 10.0 mi West 4.6 mph - N/A   Clear
1:35 AM 68.0 °F 64.4 °F 88% 29.87 in 10.0 mi SW 6.9 mph - N/A Thunderstorm Clear
1:55 AM 68.0 °F 64.0 °F 87% 29.85 in 10.0 mi SSW 5.8 mph - N/A   Clear
2:15 AM 67.5 °F 63.9 °F 88% 29.85 in 10.0 mi Calm Calm - N/A   Clear
2:35 AM 67.8 °F 63.7 °F 87% 29.86 in 10.0 mi Calm Calm - N/A   Clear
2:55 AM 66.9 °F 63.5 °F 89% 29.88 in 10.0 mi Calm Calm - N/A   Clear
3:15 AM 66.2 °F 63.5 °F 91% 29.88 in 10.0 mi Calm Calm - N/A   Clear
3:35 AM 64.9 °F 63.0 °F 93% 29.89 in 10.0 mi Calm Calm - N/A   Clear
3:55 AM 65.7 °F 63.5 °F 93% 29.90 in 10.0 mi Calm Calm - N/A   Scattered Clouds
4:15 AM 66.6 °F 63.5 °F 90% 29.90 in 10.0 mi Calm Calm - N/A   Scattered Clouds
4:35 AM 66.0 °F 63.7 °F 92% 29.90 in 10.0 mi SW 4.6 mph - N/A   Clear
4:55 AM 65.7 °F 63.5 °F 93% 29.90 in 10.0 mi WSW 3.5 mph - N/A   Clear
5:15 AM 64.9 °F 63.5 °F 95% 29.90 in 7.0 mi WNW 3.5 mph - N/A   Clear
5:35 AM 66.2 °F 63.9 °F 92% 29.89 in 10.0 mi WSW 5.8 mph - N/A   Clear
5:55 AM 65.7 °F 63.7 °F 93% 29.90 in 7.0 mi WSW 6.9 mph - N/A   Clear
6:15 AM 65.7 °F 63.7 °F 93% 29.91 in 7.0 mi West 4.6 mph - N/A   Scattered Clouds
6:35 AM 66.2 °F 64.0 °F 93% 29.91 in 7.0 mi West 5.8 mph - N/A   Mostly Cloudy
6:55 AM 67.8 °F 64.8 °F 90% 29.93 in 10.0 mi West 6.9 mph - N/A   Mostly Cloudy
7:15 AM 68.7 °F 65.1 °F 88% 29.94 in 10.0 mi SW 8.1 mph - N/A   Scattered Clouds
7:35 AM 68.9 °F 65.3 °F 88% 29.95 in 10.0 mi WSW 10.4 mph - N/A   Mostly Cloudy
7:55 AM 69.8 °F 65.3 °F 86% 29.95 in 10.0 mi WSW 9.2 mph - N/A   Mostly Cloudy
8:15 AM 70.7 °F 65.3 °F 83% 29.95 in 10.0 mi West 8.1 mph - N/A   Scattered Clouds
8:35 AM 71.4 °F 64.9 °F 80% 29.95 in 10.0 mi West 6.9 mph - N/A   Clear
8:55 AM 73.6 °F 65.5 °F 76% 29.94 in 10.0 mi West 9.2 mph - N/A   Scattered Clouds
9:15 AM 74.3 °F 65.1 °F 73% 29.93 in 10.0 mi WNW 6.9 mph - N/A   Clear
9:35 AM 75.2 °F 64.4 °F 69% 29.93 in 10.0 mi WNW 5.8 mph - N/A   Clear
9:55 AM 76.3 °F 63.9 °F 65% 29.94 in 10.0 mi WSW 8.1 mph - N/A   Clear
10:15 AM 76.3 °F 61.7 °F 60% 29.95 in 10.0 mi SW 8.1 mph - N/A   Clear
10:35 AM 77.4 °F 61.2 °F 57% 29.95 in 10.0 mi SW 10.4 mph - N/A   Clear
10:55 AM 76.8 °F 62.6 °F 61% 29.96 in 10.0 mi SSW 13.8 mph 18.4 mph N/A   Scattered Clouds
11:15 AM 75.4 °F 64.2 °F 68% 29.96 in 10.0 mi South 17.3 mph - N/A   Mostly Cloudy
11:35 AM 73.2 °F 63.7 °F 72% 29.96 in 10.0 mi South 15.0 mph - N/A   Scattered Clouds
11:55 AM 70.9 °F 60.3 °F 69% 29.96 in 10.0 mi South 16.1 mph 20.7 mph N/A   Scattered Clouds
12:15 PM 72.9 °F 60.8 °F 66% 29.94 in 10.0 mi South 6.9 mph - N/A   Scattered Clouds
12:35 PM 76.1 °F 58.8 °F 55% 29.93 in 10.0 mi South 9.2 mph - N/A   Clear
12:55 PM 75.9 °F 59.2 °F 56% 29.93 in 10.0 mi SSE 10.4 mph - N/A Thunderstorm Scattered Clouds
1:15 PM 74.8 °F 59.5 °F 59% 29.93 in 10.0 mi SSE 6.9 mph - N/A   Mostly Cloudy
1:35 PM 73.9 °F 62.6 °F 68% 29.93 in 10.0 mi South 10.4 mph - N/A   Scattered Clouds
1:55 PM 73.9 °F 62.2 °F 67% 29.93 in 10.0 mi South 11.5 mph - N/A   Clear
2:15 PM 75.4 °F 63.5 °F 66% 29.93 in 10.0 mi South 12.7 mph 16.1 mph N/A   Clear
2:35 PM 75.9 °F 63.9 °F 66% 29.93 in 10.0 mi SSE 10.4 mph - N/A   Clear
2:55 PM 75.0 °F 63.3 °F 67% 29.93 in 10.0 mi South 16.1 mph - N/A   Scattered Clouds
3:15 PM 73.8 °F 62.8 °F 68% 29.92 in 10.0 mi South 11.5 mph - N/A   Scattered Clouds
3:35 PM 73.4 °F 63.5 °F 71% 29.92 in 10.0 mi South 11.5 mph - N/A   Scattered Clouds
3:55 PM 73.0 °F 63.3 °F 71% 29.91 in 10.0 mi South 9.2 mph - N/A   Scattered Clouds
4:15 PM 73.6 °F 63.1 °F 70% 29.91 in 10.0 mi SSE 10.4 mph - N/A   Clear
4:35 PM 73.2 °F 63.3 °F 71% 29.91 in 10.0 mi SSE 9.2 mph - N/A   Scattered Clouds
4:55 PM 74.1 °F 64.4 °F 72% 29.90 in 10.0 mi SSE 9.2 mph - N/A   Clear
5:15 PM 74.7 °F 65.1 °F 72% 29.90 in 10.0 mi SSE 8.1 mph - N/A   Clear
5:35 PM 75.2 °F 64.2 °F 69% 29.90 in 10.0 mi SSE 8.1 mph - N/A   Clear
5:55 PM 75.9 °F 65.3 °F 70% 29.89 in 10.0 mi SSE 10.4 mph - N/A   Clear
6:15 PM 75.6 °F 58.3 °F 55% 29.90 in 10.0 mi South 16.1 mph 20.7 mph N/A   Clear
6:35 PM 76.1 °F 57.0 °F 51% 29.90 in 10.0 mi South 17.3 mph 20.7 mph N/A   Clear
6:55 PM 74.7 °F 56.5 °F 53% 29.90 in 10.0 mi South 15.0 mph - N/A   Clear
7:15 PM 73.9 °F 57.4 °F 56% 29.91 in 10.0 mi South 12.7 mph - N/A   Clear
7:35 PM 72.5 °F 57.4 °F 59% 29.91 in 10.0 mi SSW 10.4 mph 16.1 mph N/A   Clear
7:55 PM 70.7 °F 57.4 °F 63% 29.91 in 10.0 mi South 12.7 mph 16.1 mph N/A   Clear
8:15 PM 68.9 °F 57.6 °F 67% 29.91 in 10.0 mi South 10.4 mph - N/A   Clear
8:35 PM 67.1 °F 58.1 °F 73% 29.92 in 10.0 mi SSW 6.9 mph - N/A   Clear
8:55 PM 65.5 °F 58.6 °F 79% 29.92 in 10.0 mi SSW 6.9 mph - N/A   Clear
9:15 PM 64.8 °F 58.3 °F 79% 29.92 in 10.0 mi SW 5.8 mph - N/A   Clear
9:35 PM 63.9 °F 58.3 °F 82% 29.93 in 10.0 mi SW 4.6 mph - N/A   Clear
9:55 PM 63.5 °F 58.5 °F 84% 29.93 in 10.0 mi SSW 3.5 mph - N/A   Clear
10:15 PM 63.1 °F 58.1 °F 84% 29.94 in 10.0 mi Calm Calm - N/A   Clear
10:35 PM 64.4 °F 57.4 °F 78% 29.95 in 10.0 mi Calm Calm - N/A   Clear
10:55 PM 63.0 °F 57.2 °F 81% 29.95 in 10.0 mi Calm Calm - N/A   Clear
11:15 PM 61.7 °F 57.4 °F 86% 29.95 in 10.0 mi Calm Calm - N/A   Clear
11:35 PM 61.7 °F 57.6 °F 86% 29.96 in 10.0 mi Calm Calm - N/A   Clear
11:55 PM 60.8 °F 57.6 °F 89% 29.96 in 10.0 mi Calm Calm - N/A   Clear